| time (UTC) | temp F | wind direction | speed MPH | gust MPH | rain 1hr in | rain 24hr in | rain mn in | humidity % | barometer mb |
| 20260901231501 | 92 | 276 | 0.0 | 0.0 | 0.00 | 0.00 | 0.09 | 70 | 1016.1 |
| 20260901230002 | 92 | 245 | 1.0 | 2.0 | 0.00 | 0.00 | 0.09 | 70 | 1015.9 |
| 20260901225502 | 92 | 278 | 0.0 | 2.0 | 0.00 | 0.00 | 0.09 | 71 | 1016.2 |
| 20260901225002 | 92 | 273 | 0.0 | 0.0 | 0.00 | 0.00 | 0.09 | 71 | 1016.0 |
| 20260901224502 | 92 | 285 | 0.0 | 0.0 | 0.00 | 0.00 | 0.09 | 70 | 1016.0 |
| 20260901223503 | 93 | 271 | 0.0 | 2.0 | 0.00 | 0.00 | 0.09 | 70 | 1016.0 |
| 20260901223002 | 93 | 271 | 0.0 | 0.0 | 0.00 | 0.00 | 0.09 | 69 | 1015.8 |
| 20260901222002 | 93 | 272 | 0.0 | 3.0 | 0.00 | 0.00 | 0.09 | 68 | 1016.2 |
| 20260901221002 | 93 | 285 | 0.0 | 4.0 | 0.00 | 0.00 | 0.09 | 70 | 1015.9 |
| 20260901220502 | 93 | 272 | 1.0 | 3.0 | 0.00 | 0.00 | 0.09 | 68 | 1016.1 |
| 20260901220002 | 94 | 257 | 1.0 | 3.0 | 0.00 | 0.00 | 0.09 | 69 | 1015.9 |
| 20260901215502 | 94 | 276 | 1.0 | 2.0 | 0.00 | 0.00 | 0.09 | 68 | 1016.0 |
| 20260901214502 | 94 | 253 | 3.0 | 4.0 | 0.00 | 0.00 | 0.09 | 69 | 1016.2 |
| 20260901214002 | 93 | 249 | 2.0 | 4.0 | 0.00 | 0.00 | 0.09 | 69 | 1016.0 |
| 20260901213502 | 93 | 259 | 3.0 | 5.0 | 0.00 | 0.00 | 0.09 | 71 | 1016.1 |
| 20260901212002 | 93 | 260 | 2.0 | 4.0 | 0.00 | 0.00 | 0.09 | 68 | 1016.0 |
| 20260901211502 | 93 | 243 | 1.0 | 5.0 | 0.00 | 0.00 | 0.09 | 68 | 1016.1 |
| 20260901210502 | 94 | 268 | 3.0 | 3.0 | 0.00 | 0.00 | 0.09 | 68 | 1016.2 |
| 20260901210002 | 94 | 228 | 2.0 | 4.0 | 0.00 | 0.00 | 0.09 | 69 | 1016.2 |
| 20260901205003 | 94 | 263 | 2.0 | 7.0 | 0.00 | 0.00 | 0.09 | 70 | 1016.1 |
| 20260901204002 | 94 | 257 | 2.0 | 6.0 | 0.00 | 0.00 | 0.09 | 70 | 1016.4 |
| 20260901203502 | 94 | 274 | 1.0 | 3.0 | 0.00 | 0.00 | 0.09 | 71 | 1016.2 |
| 20260901203002 | 94 | 204 | 4.0 | 7.0 | 0.00 | 0.00 | 0.09 | 71 | 1016.2 |
| 20260901200002 | 94 | 249 | 0.0 | 4.0 | 0.00 | 0.00 | 0.09 | 69 | 1016.3 |
| 20260901195005 | 93 | 261 | 1.0 | 3.0 | 0.00 | 0.00 | 0.09 | 68 | 1016.3 |
| 20260901194002 | 93 | 182 | 2.0 | 4.0 | 0.00 | 0.00 | 0.09 | 71 | 1016.5 |
| 20260901193502 | 93 | 203 | 3.0 | 6.0 | 0.00 | 0.00 | 0.09 | 72 | 1016.3 |
| 20260901191002 | 92 | 267 | 1.0 | 5.0 | 0.00 | 0.00 | 0.09 | 71 | 1016.9 |
| 20260901190003 | 92 | 242 | 4.0 | 7.0 | 0.00 | 0.00 | 0.09 | 74 | 1016.8 |
| 20260901185501 | 92 | 265 | 3.0 | 5.0 | 0.00 | 0.00 | 0.09 | 72 | 1016.7 |
| 20260901183501 | 91 | 265 | 3.0 | 5.0 | 0.00 | 0.00 | 0.09 | 75 | 1016.7 |
| 20260901183002 | 91 | 232 | 1.0 | 3.0 | 0.00 | 0.00 | 0.09 | 76 | 1016.9 |
| 20260901182502 | 90 | 220 | 4.0 | 5.0 | 0.00 | 0.00 | 0.09 | 75 | 1016.9 |
| 20260901181002 | 90 | 293 | 3.0 | 7.0 | 0.00 | 0.00 | 0.09 | 76 | 1016.9 |
| 20260901180502 | 91 | 271 | 2.0 | 3.0 | 0.00 | 0.00 | 0.09 | 76 | 1017.0 |
| 20260901175502 | 90 | 266 | 2.0 | 7.0 | 0.00 | 0.00 | 0.09 | 78 | 1016.8 |
| 20260901174002 | 89 | 191 | 4.0 | 6.0 | 0.00 | 0.00 | 0.09 | 78 | 1017.0 |
| 20260901172002 | 88 | 267 | 0.0 | 3.0 | 0.00 | 0.00 | 0.09 | 79 | 1017.3 |
| 20260901170502 | 88 | 210 | 3.0 | 5.0 | 0.00 | 0.00 | 0.09 | 80 | 1017.3 |
| 20260901165502 | 88 | 251 | 1.0 | 3.0 | 0.00 | 0.00 | 0.09 | 80 | 1017.2 |
| 20260901165002 | 88 | 239 | 2.0 | 5.0 | 0.00 | 0.00 | 0.09 | 79 | 1017.3 |
| 20260901164502 | 89 | 247 | 5.0 | 7.0 | 0.00 | 0.00 | 0.09 | 77 | 1017.2 |
| 20260901162501 | 87 | 272 | 1.0 | 4.0 | 0.00 | 0.00 | 0.09 | 79 | 1017.5 |
| 20260901155502 | 86 | 259 | 2.0 | 6.0 | 0.00 | 0.00 | 0.09 | 81 | 1017.6 |
| 20260901155002 | 86 | 208 | 2.0 | 5.0 | 0.00 | 0.00 | 0.09 | 84 | 1017.4 |
| 20260901154502 | 85 | 286 | 1.0 | 5.0 | 0.00 | 0.00 | 0.09 | 83 | 1017.2 |
| 20260901154002 | 86 | 275 | 1.0 | 4.0 | 0.00 | 0.00 | 0.09 | 80 | 1017.5 |
| 20260901152502 | 84 | 285 | 1.0 | 4.0 | 0.00 | 0.00 | 0.09 | 81 | 1017.3 |
| 20260901152002 | 85 | 264 | 1.0 | 3.0 | 0.00 | 0.00 | 0.09 | 82 | 1017.2 |
| 20260901151502 | 85 | 283 | 1.0 | 3.0 | 0.00 | 0.00 | 0.09 | 81 | 1017.3 |
| 20260901150502 | 84 | 279 | 2.0 | 3.0 | 0.00 | 0.00 | 0.09 | 82 | 1017.4 |
| 20260901150002 | 83 | 275 | 2.0 | 4.0 | 0.00 | 0.00 | 0.09 | 84 | 1017.3 |
| 20260901145002 | 82 | 259 | 0.0 | 0.0 | 0.00 | 0.00 | 0.09 | 87 | 1017.2 |
| 20260901144501 | 81 | 271 | 1.0 | 5.0 | 0.00 | 0.00 | 0.09 | 87 | 1017.2 |
| 20260901144002 | 82 | 270 | 0.0 | 2.0 | 0.00 | 0.00 | 0.09 | 86 | 1017.2 |
| 20260901143502 | 82 | 267 | 1.0 | 3.0 | 0.00 | 0.00 | 0.09 | 85 | 1017.3 |
| 20260901143002 | 82 | 272 | 0.0 | 0.0 | 0.00 | 0.00 | 0.09 | 87 | 1017.2 |
| 20260901142502 | 81 | 180 | 1.0 | 2.0 | 0.00 | 0.00 | 0.09 | 87 | 1017.4 |
| 20260901141501 | 80 | 277 | 0.0 | 0.0 | 0.00 | 0.00 | 0.09 | 89 | 1017.2 |
| 20260901140002 | 78 | 278 | 0.0 | 0.0 | 0.00 | 0.00 | 0.09 | 91 | 1017.2 |
| 20260901135502 | 78 | 277 | 0.0 | 0.0 | 0.00 | 0.00 | 0.09 | 92 | 1017.3 |
| 20260901134502 | 77 | 291 | 0.0 | 2.0 | 0.00 | 0.00 | 0.09 | 94 | 1017.4 |
| 20260901131502 | 74 | 240 | 0.0 | 0.0 | 0.00 | 0.00 | 0.09 | 97 | 1017.3 |
| 20260901131102 | 74 | 279 | 0.0 | 2.0 | 0.00 | 0.00 | 0.09 | 98 | 1017.8 |
| 20260901130502 | 74 | 276 | 0.0 | 3.0 | 0.00 | 0.00 | 0.09 | 98 | 1017.7 |
| 20260901130004 | 74 | 276 | 0.0 | 2.0 | 0.00 | 0.00 | 0.09 | 98 | 1017.7 |
| 20260901125602 | 74 | 277 | 0.0 | 0.0 | 0.00 | 0.00 | 0.09 | 98 | 1017.7 |
| 20260901125101 | 74 | 271 | 0.0 | 4.0 | 0.00 | 0.00 | 0.09 | 99 | 1017.6 |
| 20260901124502 | 74 | 246 | 0.0 | 0.0 | 0.00 | 0.00 | 0.09 | 99 | 1017.5 |
| 20260901122503 | 73 | 220 | 0.0 | 0.0 | 0.00 | 0.00 | 0.09 | 99 | 1017.1 |
| 20260901121502 | 73 | 279 | 0.0 | 4.0 | 0.00 | 0.00 | 0.09 | 99 | 1017.1 |
| 20260901121002 | 73 | 226 | 0.0 | 2.0 | 0.00 | 0.00 | 0.09 | 99 | 1017.1 |
| 20260901120502 | 73 | 244 | 0.0 | 0.0 | 0.00 | 0.00 | 0.09 | 99 | 1017.0 |
| 20260901115502 | 73 | 284 | 0.0 | 0.0 | 0.00 | 0.00 | 0.09 | 99 | 1016.8 |
| 20260901114502 | 73 | 278 | 0.0 | 0.0 | 0.00 | 0.00 | 0.09 | 99 | 1016.8 |
| 20260901114002 | 72 | 211 | 1.0 | 4.0 | 0.00 | 0.00 | 0.09 | 99 | 1016.5 |
| 20260901112502 | 72 | 215 | 3.0 | 4.0 | 0.00 | 0.00 | 0.09 | 99 | 1016.5 |
| 20260901112002 | 72 | 207 | 3.0 | 4.0 | 0.00 | 0.00 | 0.09 | 99 | 1016.7 |
| 20260901110002 | 73 | 220 | 1.0 | 2.0 | 0.12 | 0.00 | 0.08 | 99 | 1016.4 |
| 20260901105502 | 73 | 256 | 2.0 | 4.0 | 0.12 | 0.00 | 0.08 | 99 | 1016.3 |
| 20260901105002 | 73 | 257 | 0.0 | 0.0 | 0.00 | 0.00 | 0.06 | 99 | 1016.4 |
| 20260901104503 | 73 | 268 | 0.0 | 0.0 | 0.24 | 0.00 | 0.06 | 99 | 1016.3 |
| 20260901104002 | 74 | 262 | 2.0 | 6.0 | 0.19 | 0.00 | 0.05 | 99 | 1016.4 |
| 20260901103002 | 74 | 259 | 2.0 | 3.0 | 0.12 | 0.00 | 0.02 | 97 | 1016.2 |
| 20260901102502 | 74 | 274 | 0.0 | 0.0 | 0.07 | 0.00 | 0.01 | 96 | 1016.4 |
| 20260901102002 | 74 | 279 | 0.0 | 0.0 | 0.00 | 0.00 | 0.00 | 96 | 1016.5 |
| 20260901101002 | 75 | 274 | 0.0 | 0.0 | 0.00 | 0.00 | 0.00 | 95 | 1016.8 |
| 20260901100002 | 75 | 279 | 0.0 | 0.0 | 0.00 | 0.00 | 0.00 | 93 | 1016.5 |
| 20260901095501 | 75 | 276 | 0.0 | 0.0 | 0.00 | 0.00 | 0.00 | 93 | 1016.5 |
| 20260901095002 | 75 | 278 | 0.0 | 0.0 | 0.00 | 0.00 | 0.00 | 93 | 1016.4 |
| 20260901094001 | 75 | 291 | 0.0 | 0.0 | 0.00 | 0.00 | 0.00 | 93 | 1016.2 |
| 20260901093502 | 75 | 282 | 0.0 | 0.0 | 0.00 | 0.00 | 0.00 | 93 | 1016.1 |
| 20260901093002 | 75 | 281 | 0.0 | 0.0 | 0.00 | 0.00 | 0.00 | 93 | 1016.3 |
| 20260901092501 | 75 | 281 | 0.0 | 0.0 | 0.00 | 0.00 | 0.00 | 93 | 1016.0 |
| 20260901092002 | 75 | 257 | 0.0 | 0.0 | 0.00 | 0.00 | 0.00 | 93 | 1016.0 |
| 20260901091503 | 75 | 266 | 0.0 | 0.0 | 0.00 | 0.00 | 0.00 | 93 | 1016.1 |
| 20260901090502 | 75 | 276 | 0.0 | 0.0 | 0.00 | 0.00 | 0.00 | 92 | 1016.2 |
| 20260901085501 | 75 | 278 | 1.0 | 3.0 | 0.00 | 0.00 | 0.00 | 92 | 1016.1 |
| 20260901082502 | 76 | 258 | 1.0 | 3.0 | 0.00 | 0.00 | 0.00 | 91 | 1016.1 |
| 20260901081501 | 76 | 232 | 2.0 | 3.0 | 0.00 | 0.00 | 0.00 | 91 | 1016.2 |
| 20260901081002 | 76 | 269 | 2.0 | 3.0 | 0.00 | 0.00 | 0.00 | 90 | 1016.0 |
| 20260901080502 | 76 | 280 | 1.0 | 3.0 | 0.00 | 0.00 | 0.00 | 91 | 1016.3 |
| 20260901074502 | 76 | 275 | 0.0 | 2.0 | 0.00 | 0.00 | 0.00 | 91 | 1015.9 |
| 20260901070002 | 76 | 261 | 1.0 | 2.0 | 0.00 | 0.00 | 0.00 | 91 | 1015.9 |
| 20260901064002 | 75 | 272 | 0.0 | 0.0 | 0.00 | 0.00 | 0.00 | 92 | 1016.0 |
| 20260901062002 | 76 | 265 | 0.0 | 3.0 | 0.00 | 0.00 | 0.00 | 92 | 1015.7 |
| 20260901061501 | 76 | 239 | 3.0 | 4.0 | 0.00 | 0.00 | 0.00 | 92 | 1015.6 |
| 20260901060002 | 76 | 251 | 0.0 | 2.0 | 0.00 | 0.00 | 0.00 | 93 | 1015.8 |
| 20260901055002 | 76 | 274 | 0.0 | 0.0 | 0.00 | 0.00 | 0.00 | 93 | 1015.8 |
| 20260901054002 | 76 | 249 | 0.0 | 0.0 | 0.00 | 0.00 | 0.00 | 93 | 1015.9 |
| 20260901053501 | 76 | 253 | 0.0 | 0.0 | 0.00 | 0.00 | 0.00 | 93 | 1016.0 |
| 20260901052502 | 76 | 273 | 0.0 | 0.0 | 0.00 | 0.00 | 0.00 | 92 | 1015.9 |
| 20260901052001 | 76 | 215 | 0.0 | 0.0 | 0.00 | 0.00 | 0.00 | 92 | 1016.0 |
| 20260901051002 | 76 | 273 | 0.0 | 0.0 | 0.00 | 0.00 | 0.00 | 92 | 1016.0 |
| 20260901050002 | 77 | 277 | 0.0 | 2.0 | 0.00 | 0.00 | 0.17 | 92 | 1016.1 |
| 20260901044502 | 77 | 281 | 2.0 | 4.0 | 0.00 | 0.00 | 0.17 | 91 | 1016.0 |
| 20260901033502 | 78 | 207 | 1.0 | 4.0 | 0.00 | 0.00 | 0.17 | 90 | 1015.8 |
| 20260901033001 | 78 | 272 | 1.0 | 2.0 | 0.00 | 0.00 | 0.17 | 90 | 1015.9 |
| 20260901032502 | 78 | 258 | 1.0 | 5.0 | 0.00 | 0.00 | 0.17 | 89 | 1015.9 |
| 20260901031501 | 78 | 281 | 1.0 | 2.0 | 0.00 | 0.00 | 0.17 | 90 | 1016.0 |
| 20260901031002 | 79 | 225 | 3.0 | 6.0 | 0.00 | 0.00 | 0.17 | 89 | 1016.0 |
| 20260901030502 | 79 | 232 | 3.0 | 5.0 | 0.00 | 0.00 | 0.17 | 89 | 1016.1 |
| 20260901025502 | 79 | 253 | 0.0 | 6.0 | 0.00 | 0.00 | 0.17 | 89 | 1016.2 |
| 20260901025002 | 79 | 278 | 1.0 | 5.0 | 0.00 | 0.00 | 0.17 | 88 | 1016.2 |
| 20260901024501 | 79 | 246 | 0.0 | 0.0 | 0.00 | 0.00 | 0.17 | 89 | 1016.3 |
| 20260901023502 | 78 | 281 | 0.0 | 2.0 | 0.00 | 0.00 | 0.17 | 91 | 1016.1 |
| 20260901022001 | 78 | 280 | 0.0 | 0.0 | 0.00 | 0.00 | 0.17 | 91 | 1016.2 |
| 20260901021502 | 79 | 260 | 0.0 | 0.0 | 0.00 | 0.00 | 0.17 | 91 | 1016.1 |
| 20260901021002 | 79 | 266 | 0.0 | 0.0 | 0.00 | 0.00 | 0.17 | 90 | 1016.3 |
| 20260901020502 | 79 | 274 | 1.0 | 4.0 | 0.00 | 0.00 | 0.17 | 90 | 1016.1 |
| 20260901020002 | 79 | 265 | 2.0 | 3.0 | 0.00 | 0.00 | 0.17 | 90 | 1016.3 |
| 20260901014502 | 79 | 243 | 2.0 | 4.0 | 0.00 | 0.00 | 0.17 | 91 | 1016.0 |
| 20260901013501 | 79 | 237 | 3.0 | 4.0 | 0.00 | 0.00 | 0.17 | 92 | 1016.0 |
| 20260901013002 | 79 | 237 | 0.0 | 3.0 | 0.00 | 0.00 | 0.17 | 92 | 1016.0 |
| 20260901012502 | 79 | 261 | 0.0 | 5.0 | 0.00 | 0.00 | 0.17 | 91 | 1015.7 |
| 20260901011501 | 79 | 231 | 1.0 | 3.0 | 0.00 | 0.00 | 0.17 | 91 | 1015.7 |
| 20260901010502 | 80 | 279 | 1.0 | 5.0 | 0.00 | 0.00 | 0.17 | 90 | 1015.7 |
| 20260901010002 | 80 | 260 | 2.0 | 9.0 | 0.00 | 0.00 | 0.17 | 90 | 1015.6 |
| 20260901005502 | 80 | 257 | 2.0 | 6.0 | 0.00 | 0.00 | 0.17 | 90 | 1015.3 |
| 20260901003002 | 80 | 272 | 0.0 | 5.0 | 0.00 | 0.00 | 0.17 | 93 | 1015.2 |
| 20260901001002 | 79 | 280 | 3.0 | 5.0 | 0.66 | 0.00 | 0.16 | 90 | 1015.4 |
| 20260901000501 | 80 | 249 | 0.0 | 4.0 | 0.66 | 0.00 | 0.13 | 88 | 1017.0 |
| 20260831235502 | 84 | 278 | 0.0 | 0.0 | 0.00 | 0.02 | 0.02 | 83 | 1017.1 |
| 20260831234502 | 84 | 265 | 0.0 | 0.0 | 0.00 | 0.02 | 0.02 | 83 | 1015.9 |
| 20260831234002 | 85 | 278 | 0.0 | 2.0 | 0.00 | 0.00 | 0.02 | 81 | 1015.9 |
| 20260831233501 | 85 | 264 | 0.0 | 2.0 | 0.00 | 0.00 | 0.02 | 81 | 1015.9 |
| 20260831233002 | 86 | 261 | 1.0 | 4.0 | 0.00 | 0.00 | 0.02 | 80 | 1015.8 |
| 20260831232501 | 86 | 249 | 2.0 | 3.0 | 0.00 | 0.00 | 0.02 | 80 | 1015.3 |
| 20260831232002 | 86 | 271 | 0.0 | 0.0 | 0.00 | 0.00 | 0.02 | 80 | 1015.6 |